EHI
0 0 0 0 0 0 0 0 0 0 0 0 0 0 0 0 0 0 0 0 0 1 2 2 1 0 0 0 0 0 0 0 0 1 0 0 0 0 0 0 0 0 0
0 0 0 0 0 0 0 0 0 0 0 0 0 0 0 0 0 0 0 0 0 0 1 1 0 0 0 0 0 0 0 0 0 1 0 0 0 0 0 0 0 0 0
0 0 0 0 0 0 0 0 0 0 0 0 0 0 0 0 0 0 0 0 0 0 0 0 0 0 0 0 0 0 0 0 0 0 0 0 0 0 0 0 0 0 0
0 0 0 0 0 0 0 0 0 0 0 0 0 0 0 0 0 0 0 0 0 0 0 0 0 0 0 0 0 0 0 0 0 0 0 0 0 0 0 0 0 0 0
0 0 0 0 0 0 0 0 0 0 0 0 0 0 0 0 0 0 0 0 0 0 0 0 0 0 0 0 0 0 0 0 0 0 0 0 0 0 0 0 0 0 0
0 0 0 0 0 0 0 0 0 0 0 0 0 0 0 0 0 0 0 0 0 0 0 0 0 0 0 0 0 0 0 0 0 0 0 0 0 0 0 0 0 0 0
0 0 0 0 0 0 0 0 0 0 0 0 0 0 0 0 0 0 0 0 0 0 0 0 0 0 0 0 0 0 0 1 0 0 0 0 0 0 0 0 0 0 0
0 0 0 0 0 0 0 0 0 0 0 0 0 0 0 0 0 0 0 0 0 0 0 0 0 0 0 0 0 0 0 0 0 0 0 0 0 0 0 0 0 0 0
0 0 0 0 0 0 0 0 0 0 0 0 0 0 0 0 0 0 0 0 0 0 0 0 0 0 0 0 0 0 0 0 0 0 0 0 0 0 0 0 0 0 0
0 0 0 0 0 0 0 0 0 0 0 0 0 0 0 0 0 0 0 0 0 0 0 0 0 0 0 0 0 0 0 0 1 1 1 0 0 0 0 0 0 0 0
0 0 0 0 0 0 0 0 0 0 0 0 0 0 0 0 0 0 0 0 0 0 0 0 0 0 0 0 0 0 0 0 1 1 1 0 0 0 0 0 0 0 0
0 0 0 0 0 0 0 0 0 0 0 0 0 0 0 0 0 0 0 0 0 0 0 0 0 0 0 0 0 0 0 0 0 1 2 1 0 0 0 0 0 0 0
0 0 0 0 0 0 0 0 0 0 0 0 0 0 0 0 0 0 0 0 0 0 0 0 0 0 0 0 0 0 0 0 0 1 2 1 0 0 0 0 0 0 0
0 0 0 0 0 0 0 0 0 0 0 0 0 0 0 0 0 0 0 0 0 0 0 0 0 0 0 0 0 0 0 0 0 0 1 1 0 0 0 0 0 0 0
0 0 0 0 0 0 0 0 0 0 0 0 0 0 0 0 0 0 0 0 0 0 0 0 0 0 0 0 0 0 0 0 0 0 0 0 0 0 0 0 0 0 0
0 0 0 0 0 0 0 0 0 0 0 0 0 0 0 0 0 0 0 0 0 0 0 0 0 0 0 0 0 0 0 0 0 0 0 0 0 0 0 0 0 0 0
0 0 0 0 0 0 0 0 0 0 0 0 0 0 0 0 0 0 0 0 0 0 0 0 0 0 0 0 0 0 0 0 0 0 0 0 0 0 0 0 0 0 0
0 0 0 0 0 0 0 0 0 0 0 0 0 0 0 0 0 0 0 0 0 0 0 0 0 0 0 0 0 0 0 0 0 0 0 0 0 0 0 0 0 0 0
0 0 0 0 0 0 0 0 0 0 0 0 0 0 0 0 0 0 0 0 0 0 0 0 0 0 0 0 0 0 0 0 0 0 0 0 0 0 0 0 0 0 0
0 0 0 0 0 0 0 0 0 0 0 0 0 0 0 0 0 0 0 0 0 0 0 0 0 0 0 0 0 0 0 0 0 0 0 0 0 0 0 0 0 0 0
0 0 0 0 0 0 0 0 0 0 0 0 0 0 0 0 0 0 0 0 0 0 0 0 0 0 0 0 0 0 0 0 0 0 0 0 0 0 0 0 0 0 0
0 0 0 0 0 0 0 0 0 0 0 0 0 0 0 0 0 0 0 0 0 0 0 0 0 0 0 0 0 0 0 0 0 0 0 0 0 0 0 0 0 0 0
0 0 0 0 0 0 0 0 0 0 0 0 0 0 0 0 0 0 0 0 0 0 0 0 0 0 0 0 0 0 0 0 0 0 0 0 0 0 0 0 0 0 0
0 0 0 0 0 0 0 0 0 0 0 0 0 0 0 0 0 0 0 0 0 0 0 0 0 0 0 0 0 0 0 0 0 0 0 0 0 0 0 0 0 0 0
0 0 0 0 0 0 0 0 0 0 0 0 0 0 0 0 0 0 0 0 0 0 0 0 0 0 0 0 0 0 0 0 0 0 0 0 0 0 0 0 0 0 0
0 0 0 0 0 0 0 0 0 0 0 0 0 0 0 0 0 0 0 0 0 0 0 0 0 0 0 0 0 0 0 0 0 0 0 0 0 0 0 0 0 0 0
Wind_Speed
2 1 1 1 1 1 1 1 1 1 1 1 1 1 1 1 1 1 1 1 1 1 2 3 3 3 4 4 4 5 5 6 6 6 6 6 6 6 6 6 6 6 6
2 1 1 1 1 1 1 1 1 1 1 1 1 1 1 1 1 1 0 0 0 1 2 3 3 3 4 4 4 5 5 5 5 5 5 6 6 6 6 6 6 6 6
3 2 1 1 2 2 1 1 1 1 1 1 2 2 1 1 1 1 1 0 1 1 2 3 4 4 4 4 4 5 5 5 5 5 5 5 5 6 5 6 6 6 5
4 3 1 1 2 1 1 1 1 1 1 1 1 2 2 1 2 1 1 1 1 1 1 2 3 4 4 4 5 5 5 5 5 5 5 4 5 6 6 6 6 6 5
5 3 2 2 2 1 1 2 2 1 1 2 2 2 1 1 2 2 1 0 0 1 1 2 2 3 4 5 5 5 6 6 5 6 5 5 5 5 6 6 6 6 6
5 4 2 2 2 1 2 2 2 2 1 1 2 2 2 2 2 2 1 1 0 0 1 1 1 1 3 4 5 6 6 6 6 6 5 6 6 5 5 6 6 6 6
5 4 4 2 1 1 1 2 1 2 1 1 1 2 3 3 2 1 1 0 0 1 1 1 1 1 1 3 4 5 6 7 7 6 6 5 6 6 6 7 7 6 6
4 4 4 2 1 1 1 1 1 1 2 1 1 1 1 2 2 2 1 1 1 0 1 1 1 1 1 1 3 5 5 6 6 6 6 6 6 6 7 7 7 7 7
5 4 4 3 2 1 1 1 1 1 2 2 1 1 1 2 2 2 2 2 1 1 1 1 1 1 1 1 2 3 4 4 6 7 7 7 7 7 7 8 7 7 7
5 5 5 4 2 2 2 2 1 1 2 2 3 2 2 1 1 2 2 2 2 2 2 2 1 1 1 0 1 3 5 5 6 6 7 7 8 8 8 8 8 7 7
5 5 5 4 3 2 2 2 2 2 2 3 3 2 3 3 3 2 3 3 2 2 2 2 1 1 1 1 1 2 4 6 7 7 7 7 7 8 7 6 6 7 6
4 5 6 5 4 2 3 3 3 3 3 3 3 3 2 2 3 2 3 3 3 3 2 2 2 2 2 2 2 3 4 5 6 7 8 8 7 7 6 6 5 5 6
4 5 5 5 4 3 3 3 3 3 4 4 4 3 3 3 3 3 2 3 3 3 2 2 2 2 2 1 1 3 4 5 5 6 8 8 6 5 4 5 5 4 5
4 6 7 6 5 4 4 3 3 4 4 4 4 4 3 3 3 3 3 2 3 3 3 3 2 2 2 1 2 3 3 4 5 5 6 5 4 4 4 4 4 4 3
6 6 7 7 5 5 4 4 4 4 4 4 4 4 3 3 3 3 3 3 3 4 5 3 2 2 2 1 2 2 2 3 4 4 4 4 4 4 4 4 4 4 3
6 7 6 7 6 5 4 4 4 4 4 4 4 4 4 3 3 3 3 3 3 3 4 3 2 2 2 2 3 2 2 3 4 4 4 5 5 5 5 5 5 5 4
7 7 7 6 6 5 4 4 4 5 5 5 4 5 5 4 3 3 3 3 3 3 4 3 2 2 2 3 2 2 2 2 2 4 4 5 5 6 6 6 6 6 5
7 7 7 7 6 6 5 5 5 5 6 6 6 6 6 4 5 4 3 4 4 3 3 4 3 2 3 3 2 2 2 2 2 3 4 5 5 6 6 6 6 6 6
7 7 7 7 6 6 6 6 6 6 7 7 6 6 6 6 6 4 4 4 4 4 3 4 4 3 2 2 2 2 2 2 2 3 4 4 4 5 6 6 6 6 6
7 7 7 7 6 6 6 6 6 6 6 7 6 6 6 7 7 6 5 5 4 4 4 4 3 3 2 2 2 2 2 2 2 1 2 3 4 5 6 6 6 6 6
8 8 7 6 6 6 6 7 5 6 6 6 6 6 7 8 9 8 6 5 5 4 4 4 4 3 3 3 3 3 3 2 2 1 1 2 2 2 3 4 5 6 6
8 7 6 6 7 7 11 13 9 5 5 6 6 6 6 7 9 10 10 10 9 7 6 5 4 5 5 4 3 3 3 2 3 2 2 2 2 2 2 3 5 6 6
7 7 6 6 7 8 13 13 11 7 5 5 6 6 6 6 8 6 8 9 9 10 10 7 7 7 6 5 5 5 5 4 4 3 2 3 2 3 2 2 4 5 6
6 6 7 7 7 9 14 13 12 7 5 5 6 6 7 6 7 7 7 7 7 7 8 7 7 7 7 6 7 6 5 3 1 2 2 2 2 2 2 1 4 5 5
7 7 7 7 7 8 13 14 12 5 4 5 6 6 7 7 9 10 7 7 6 6 8 9 9 9 9 8 6 4 4 4 3 3 2 2 2 1 1 2 2 3 3
7 7 8 6 7 7 12 14 13 4 4 5 5 5 8 9 10 10 7 6 7 6 5 5 6 7 6 7 8 7 6 5 3 3 3 3 2 1 1 1 1 1 1
Wind_Direction
3 2 3 360 343 357 358 340 328 333 325 313 322 332 349 351 358 6 53 75 120 152 169 171 164 162 162 160 158 152 145 148 152 155 160 158 151 146 148 146 142 139 133
351 355 6 360 341 336 326 308 307 310 294 305 316 322 324 327 306 325 25 60 86 165 171 168 167 163 163 165 162 153 149 154 152 151 155 159 155 156 159 160 154 151 147
345 350 6 357 336 335 339 326 324 336 316 327 326 325 329 320 304 292 280 217 203 169 156 174 181 179 175 175 173 171 166 165 161 159 154 159 167 165 165 167 165 159 161
348 343 357 340 330 338 348 336 348 340 328 323 321 319 319 309 304 281 268 224 182 171 175 174 183 182 185 189 188 188 184 177 172 166 166 163 169 178 175 174 170 168 169
341 340 329 332 334 342 350 342 353 349 334 327 324 313 306 292 289 285 281 248 184 169 167 173 179 189 196 202 205 199 194 185 181 179 177 177 178 186 186 183 182 182 180
336 335 321 333 338 343 343 353 351 347 331 316 311 320 306 285 275 263 249 265 271 202 170 163 175 194 200 204 206 206 202 191 187 186 185 188 191 191 196 196 195 195 196
327 332 325 312 325 319 324 340 355 340 328 332 322 315 302 284 263 259 255 244 242 226 193 187 184 184 201 210 213 213 209 201 195 193 196 196 201 202 208 209 208 209 209
324 327 324 304 298 296 319 336 351 331 305 322 314 300 300 306 308 292 281 258 248 247 237 236 198 198 192 189 207 208 209 212 208 207 209 213 216 217 217 218 215 213 213
320 315 313 300 270 264 260 271 264 319 276 284 274 232 224 243 303 276 261 250 246 265 260 254 261 234 199 180 191 199 201 209 217 218 222 224 225 224 225 219 216 217 215
317 310 311 303 273 261 256 254 277 283 242 262 278 274 268 247 235 281 291 278 263 254 243 249 256 268 250 203 192 192 197 205 219 223 226 228 229 228 225 224 222 223 219
313 315 311 301 280 262 253 253 258 260 254 258 261 276 285 283 247 241 265 273 284 274 251 238 237 248 247 229 209 208 207 209 218 227 231 231 230 224 220 221 223 222 219
309 313 319 305 286 271 256 246 241 245 254 265 267 262 258 253 261 256 254 252 263 276 277 268 247 240 241 228 220 218 221 217 222 227 231 233 234 233 226 225 228 231 228
316 308 312 297 287 277 267 256 243 241 246 252 256 263 262 257 260 269 259 262 268 271 267 268 247 237 241 220 218 220 227 227 231 233 236 239 235 233 230 228 230 237 239
310 312 313 302 293 279 274 260 249 247 247 246 257 265 271 267 263 257 248 250 267 272 259 253 263 245 237 224 224 227 230 227 231 237 242 244 238 227 225 227 229 232 236
308 311 311 299 292 286 275 266 252 249 253 252 250 257 266 270 268 269 255 232 230 254 258 247 253 249 244 220 213 227 221 215 219 227 228 227 229 228 224 223 226 225 229
307 303 303 299 292 284 278 269 264 248 248 253 253 252 260 266 265 264 260 257 248 242 257 256 259 266 262 259 230 238 224 217 221 222 231 230 224 223 221 221 223 223 227
305 304 298 294 293 289 279 269 266 258 247 250 254 251 256 260 259 260 256 254 256 247 253 270 281 279 260 247 251 247 223 217 221 226 237 236 225 222 219 220 221 221 223
306 305 298 294 289 290 285 275 268 265 251 244 244 245 249 250 249 251 250 250 253 250 244 255 269 264 259 237 229 236 249 245 221 224 233 237 233 224 220 221 220 219 220
308 306 304 295 290 289 286 280 270 259 256 248 242 240 242 240 244 244 248 248 251 255 246 237 248 253 260 235 223 243 245 249 252 231 231 233 235 231 228 227 225 222 217
306 303 302 299 294 291 288 281 276 266 260 255 247 242 240 236 238 237 240 242 245 249 248 231 234 239 248 234 209 214 236 239 250 249 245 243 241 245 238 235 231 225 220
305 300 300 303 299 293 287 283 277 274 265 260 251 246 243 241 243 241 239 234 232 235 240 231 227 231 228 213 218 218 225 225 250 228 226 240 232 246 245 241 233 224 221
303 301 303 303 301 299 300 298 291 281 276 269 264 256 252 247 245 247 245 243 235 231 231 232 231 223 225 227 226 218 207 214 246 210 202 242 209 232 245 231 227 224 220
303 304 303 301 298 301 303 301 295 291 276 268 264 259 257 253 252 241 244 247 244 243 239 234 233 230 223 220 215 217 216 219 236 208 194 239 223 232 245 239 226 220 214
301 301 301 300 298 300 306 308 301 293 280 276 271 262 253 247 245 243 235 235 237 240 240 236 233 234 230 217 213 216 218 220 248 222 195 232 238 245 248 240 233 219 214
299 298 300 299 299 301 305 307 301 288 281 280 277 272 264 248 247 252 246 236 241 249 254 251 249 245 240 227 216 199 202 200 227 235 206 206 227 248 250 239 230 214 215
297 299 297 296 297 300 304 306 303 288 280 280 278 275 275 270 257 251 242 236 240 243 242 248 250 244 235 219 217 210 203 202 210 229 208 185 195 165 263 266 218 206 207